Find DODGE

NORAD ID: 2867 Int'l Des: 1967-066 Owner: NAVAIR Country: US operational
MEOCIRCULAR

当前视图

正在加载3D地球...

About DODGE

DODGE (NORAD 2867) is a satellite by NAVAIR of US. It operates in MEO, CIRCULAR orbit

即将过境

Passes for default location (London). Set your location on the main map for personalized predictions.

高度历史

Loading altitude history...

两行轨道根数

1 2867U 67066F 26195.13448168 -.00000071 00000-0 00000+0 0 9994
2 2867 2.5557 96.8964 0052292 194.5948 63.9667 1.09167612133671
Epoch: Jul 14, 2026 • Age: 14 hours

当前状态

高度 33371.0 km
远地点 / 近地点 N/A
速度 3.17 km/s
星下点 1.95°N, 33.47°E
类型 other

Most Searched